TimeEST,TemperatureF,Dew PointF,Humidity,Sea Level PressureIn,VisibilityMPH,Wind Direction,Wind SpeedMPH,Gust SpeedMPH,PrecipitationIn,Events,Conditions,WindDirDegrees,DateUTC
12:15 AM,32.0,19.4,60,30.13,10.0,WNW,15.0,24.2,N/A,,Clear,300,2013-01-24 05:15:00
12:35 AM,32.0,19.4,60,30.13,10.0,WNW,12.7,20.7,N/A,,Clear,300,2013-01-24 05:35:00
12:55 AM,32.0,19.4,60,30.14,10.0,WNW,13.8,19.6,N/A,,Clear,300,2013-01-24 05:55:00
1:15 AM,32.0,19.4,60,30.14,10.0,NW,10.4,19.6,N/A,,Clear,310,2013-01-24 06:15:00
1:35 AM,30.2,19.4,64,30.15,10.0,NW,10.4,-,N/A,,Clear,310,2013-01-24 06:35:00
1:55 AM,30.2,19.4,64,30.15,10.0,WNW,9.2,-,N/A,,Clear,300,2013-01-24 06:55:00
2:15 AM,30.2,19.4,64,30.17,10.0,NW,9.2,-,N/A,,Clear,310,2013-01-24 07:15:00
2:35 AM,30.2,19.4,64,30.18,10.0,NW,9.2,-,N/A,,Clear,310,2013-01-24 07:35:00
2:55 AM,30.2,19.4,64,30.19,10.0,NW,9.2,-,N/A,,Clear,310,2013-01-24 07:55:00
3:15 AM,30.2,19.4,64,30.20,10.0,NW,9.2,19.6,N/A,,Clear,320,2013-01-24 08:15:00
3:35 AM,28.4,19.4,69,30.23,10.0,NNW,15.0,19.6,N/A,,Mostly Cloudy,340,2013-01-24 08:35:00
3:55 AM,26.6,17.6,69,30.25,10.0,NNW,15.0,18.4,N/A,,Mostly Cloudy,340,2013-01-24 08:55:00
4:15 AM,26.6,15.8,64,30.27,10.0,North,19.6,24.2,N/A,,Overcast,360,2013-01-24 09:15:00
4:35 AM,24.8,14.0,64,30.28,10.0,North,16.1,23.0,N/A,,Overcast,10,2013-01-24 09:35:00
4:55 AM,23.0,12.2,63,30.30,10.0,North,16.1,24.2,N/A,,Overcast,360,2013-01-24 09:55:00
5:15 AM,23.0,12.2,63,30.32,10.0,North,19.6,26.5,N/A,,Overcast,10,2013-01-24 10:15:00
5:35 AM,21.2,10.4,63,30.33,10.0,North,15.0,19.6,N/A,,Mostly Cloudy,360,2013-01-24 10:35:00
5:55 AM,21.2,10.4,63,30.34,10.0,North,10.4,18.4,N/A,,Scattered Clouds,10,2013-01-24 10:55:00
6:15 AM,21.2,10.4,63,30.35,10.0,North,13.8,17.3,N/A,,Clear,360,2013-01-24 11:15:00
6:35 AM,21.2,8.6,58,30.37,10.0,North,10.4,-,N/A,,Clear,360,2013-01-24 11:35:00
6:55 AM,19.4,6.8,58,30.38,10.0,North,11.5,16.1,N/A,,Clear,360,2013-01-24 11:55:00
7:15 AM,19.4,6.8,58,30.40,10.0,North,8.1,-,N/A,,Clear,10,2013-01-24 12:15:00
7:35 AM,19.4,8.6,63,30.41,10.0,NNE,6.9,-,N/A,,Clear,20,2013-01-24 12:35:00
7:55 AM,19.4,8.6,63,30.43,10.0,NNE,12.7,16.1,N/A,,Clear,20,2013-01-24 12:55:00
8:15 AM,19.4,8.6,63,30.44,10.0,NNE,11.5,-,N/A,,Clear,20,2013-01-24 13:15:00
8:35 AM,19.4,8.6,63,30.46,10.0,NNE,10.4,-,N/A,,Clear,20,2013-01-24 13:35:00
8:55 AM,19.4,8.6,63,30.46,10.0,North,9.2,-,N/A,,Clear,10,2013-01-24 13:55:00
9:15 AM,21.2,8.6,58,30.46,10.0,NE,10.4,16.1,N/A,,Clear,40,2013-01-24 14:15:00
9:35 AM,21.2,5.0,50,30.47,10.0,NNE,11.5,16.1,N/A,,Clear,20,2013-01-24 14:35:00
9:55 AM,21.2,5.0,50,30.49,10.0,NNE,10.4,-,N/A,,Clear,30,2013-01-24 14:55:00
10:15 AM,21.2,1.4,42,30.50,10.0,NNE,13.8,-,N/A,,Clear,30,2013-01-24 15:15:00
10:35 AM,23.0,1.4,39,30.50,10.0,NNE,12.7,16.1,N/A,,Clear,20,2013-01-24 15:35:00
10:55 AM,23.0,-0.4,36,30.52,10.0,NE,12.7,-,N/A,,Clear,50,2013-01-24 15:55:00
11:15 AM,23.0,-0.4,36,30.53,10.0,NE,8.1,-,N/A,,Clear,40,2013-01-24 16:15:00
11:35 AM,24.8,-0.4,34,30.53,10.0,North,9.2,-,N/A,,Clear,10,2013-01-24 16:35:00
11:55 AM,24.8,-2.2,31,30.53,10.0,NNE,8.1,-,N/A,,Clear,20,2013-01-24 16:55:00
12:15 PM,24.8,-2.2,31,30.52,10.0,NNE,9.2,-,N/A,,Clear,30,2013-01-24 17:15:00
12:35 PM,26.6,-0.4,31,30.51,10.0,NE,6.9,16.1,N/A,,Clear,40,2013-01-24 17:35:00
12:55 PM,26.6,-2.2,29,30.50,10.0,ENE,13.8,-,N/A,,Clear,60,2013-01-24 17:55:00
1:15 PM,26.6,-0.4,31,30.49,10.0,NNE,9.2,-,N/A,,Clear,30,2013-01-24 18:15:00
1:35 PM,26.6,-0.4,31,30.49,10.0,ENE,10.4,18.4,N/A,,Clear,70,2013-01-24 18:35:00
1:55 PM,26.6,-0.4,31,30.49,10.0,NE,8.1,-,N/A,,Clear,40,2013-01-24 18:55:00
2:15 PM,26.6,-0.4,31,30.48,10.0,NE,12.7,18.4,N/A,,Clear,40,2013-01-24 19:15:00
2:35 PM,26.6,-0.4,31,30.48,10.0,NE,11.5,17.3,N/A,,Clear,50,2013-01-24 19:35:00
2:55 PM,26.6,-0.4,31,30.47,10.0,NE,8.1,-,N/A,,Clear,50,2013-01-24 19:55:00
3:15 PM,26.6,1.4,34,30.47,10.0,ENE,8.1,-,N/A,,Clear,60,2013-01-24 20:15:00
3:35 PM,26.6,-0.4,31,30.47,10.0,ENE,10.4,-,N/A,,Clear,60,2013-01-24 20:35:00
3:55 PM,26.6,-0.4,31,30.47,10.0,ENE,9.2,-,N/A,,Clear,60,2013-01-24 20:55:00
4:15 PM,26.6,-0.4,31,30.48,10.0,NE,9.2,-,N/A,,Clear,40,2013-01-24 21:15:00
4:35 PM,26.6,-0.4,31,30.48,10.0,ENE,9.2,-,N/A,,Clear,60,2013-01-24 21:35:00
4:55 PM,24.8,-0.4,34,30.46,10.0,ENE,8.1,-,N/A,,Clear,70,2013-01-24 21:55:00
5:15 PM,24.8,-0.4,34,30.47,10.0,ENE,8.1,-,N/A,,Clear,60,2013-01-24 22:15:00
5:35 PM,24.8,1.4,36,30.47,10.0,East,6.9,-,N/A,,Clear,80,2013-01-24 22:35:00
5:55 PM,23.0,1.4,39,30.47,10.0,East,5.8,-,N/A,,Clear,90,2013-01-24 22:55:00
6:15 PM,23.0,1.4,39,30.47,10.0,East,5.8,-,N/A,,Clear,80,2013-01-24 23:15:00
6:35 PM,21.2,1.4,42,30.48,10.0,East,4.6,-,N/A,,Clear,80,2013-01-24 23:35:00
6:55 PM,21.2,3.2,46,30.47,10.0,East,5.8,-,N/A,,Clear,80,2013-01-24 23:55:00
7:15 PM,21.2,3.2,46,30.46,10.0,ENE,6.9,-,N/A,,Clear,70,2013-01-25 00:15:00
7:35 PM,21.2,3.2,46,30.46,10.0,ENE,5.8,-,N/A,,Clear,70,2013-01-25 00:35:00
7:55 PM,21.2,3.2,46,30.46,10.0,East,8.1,-,N/A,,Clear,80,2013-01-25 00:55:00
8:15 PM,21.2,3.2,46,30.45,10.0,East,6.9,-,N/A,,Clear,80,2013-01-25 01:15:00
8:35 PM,21.2,3.2,46,30.45,10.0,East,5.8,-,N/A,,Clear,80,2013-01-25 01:35:00
8:55 PM,21.2,3.2,46,30.45,10.0,East,4.6,-,N/A,,Clear,80,2013-01-25 01:55:00
9:15 PM,21.2,5.0,50,30.44,10.0,ENE,6.9,-,N/A,,Clear,70,2013-01-25 02:15:00
9:35 PM,21.2,3.2,46,30.43,10.0,East,6.9,-,N/A,,Clear,80,2013-01-25 02:35:00
9:55 PM,21.2,5.0,50,30.42,10.0,East,6.9,-,N/A,,Clear,80,2013-01-25 02:55:00
10:15 PM,21.2,5.0,50,30.41,10.0,East,6.9,-,N/A,,Clear,80,2013-01-25 03:15:00
10:35 PM,21.2,5.0,50,30.40,10.0,East,6.9,-,N/A,,Clear,80,2013-01-25 03:35:00
10:55 PM,21.2,5.0,50,30.39,10.0,East,8.1,-,N/A,,Clear,80,2013-01-25 03:55:00
11:15 PM,19.4,6.8,58,30.38,10.0,East,6.9,-,N/A,,Clear,90,2013-01-25 04:15:00
11:35 PM,19.4,6.8,58,30.38,10.0,East,8.1,-,N/A,,Clear,90,2013-01-25 04:35:00
11:55 PM,21.2,6.8,54,30.38,10.0,East,5.8,-,N/A,,Clear,90,2013-01-25 04:55:00